Find Kosmos-983

NORAD ID: 10590 Int'l Des: 1978-005 Owner: GUKOSR Country: SU operational
LEOCIRCULAR

Aktuelle Ansicht

3D-Globus wird geladen...

Über Kosmos-983

Beschreibung wird geladen...

Nächste Überflüge

Passes for default location (London). Set your location on the main map for personalized predictions.

Höhenverlauf

Loading altitude history...

Zweizeiliger Elementsatz

1 10590U 78005H 26150.99772826 .00000009 00000-0 18054-3 0 9999
2 10590 74.0326 3.3669 0046434 47.8546 312.6431 12.41511200192853
Epoch: 30. Mai 2026 • Age: 22 hours

Aktueller Status

Höhe 1530.3 km
Geschwindigkeit 7.09 km/s
Subsatellitenpunkt -4.32°S, 39.07°W
Startdatum 10. Jan. 1978
Alter 48.3 years
Typ other

Technische Details

Klassifizierung Payload
Masse 60.00 kg
Trockenmasse 60.00 kg
Gesamtmasse 60.00 kg
Länge 0.80 m
Durchmesser 0.80 m
Spannweite 0.80 m
Form Poly
Hersteller NPOPM
Bus-Typ Strela-1 11F625
Phasenstatus In Orbit
Besitzer/Staat GUKOSR/SU

Most Searched